Time,TemperatureF,DewpointF,PressureIn,WindDirection,WindDirectionDegrees,WindSpeedMPH,WindSpeedGustMPH,Humidity,HourlyPrecipIn,Conditions,Clouds,dailyrainin,SoftwareType,DateUTC
2013-08-21 00:00:00,71.4,24.3,29.15,SE,133,0.0,0.0,17,0.00,CLR,,0.00,WeatherDisplay:10.37,2013-08-21 04:00:00,
2013-08-21 00:05:00,71.2,24.1,29.15,SE,133,0.0,0.0,17,0.00,CLR,,0.00,WeatherDisplay:10.37,2013-08-21 04:05:00,
2013-08-21 00:10:00,71.1,24.0,29.15,SE,133,0.0,0.0,17,0.00,CLR,,0.00,WeatherDisplay:10.37,2013-08-21 04:10:00,
2013-08-21 00:15:00,70.9,23.9,29.15,SE,133,0.0,0.0,17,0.00,CLR,,0.00,WeatherDisplay:10.37,2013-08-21 04:15:00,
2013-08-21 00:20:00,70.9,23.9,29.15,SE,133,0.0,0.0,17,0.00,CLR,,0.00,WeatherDisplay:10.37,2013-08-21 04:20:00,
2013-08-21 00:30:00,70.7,23.7,29.15,SE,133,0.0,0.0,17,0.00,CLR,,0.00,WeatherDisplay:10.37,2013-08-21 04:30:00,
2013-08-21 00:35:00,70.5,23.6,29.15,SE,133,0.0,0.0,17,0.00,CLR,,0.00,WeatherDisplay:10.37,2013-08-21 04:35:00,
2013-08-21 00:45:00,70.5,23.6,29.15,SE,133,0.0,0.0,17,0.00,CLR,,0.00,WeatherDisplay:10.37,2013-08-21 04:45:00,
2013-08-21 00:50:00,70.5,23.6,29.15,SE,133,0.0,0.0,17,0.00,CLR,,0.00,WeatherDisplay:10.37,2013-08-21 04:50:00,
2013-08-21 00:55:00,70.3,23.4,29.15,SE,133,0.0,2.0,17,0.00,CLR,,0.00,WeatherDisplay:10.37,2013-08-21 04:55:00,
2013-08-21 01:00:00,70.3,23.4,29.15,SE,134,0.0,2.0,17,0.00,CLR,,0.00,WeatherDisplay:10.37,2013-08-21 05:00:00,
2013-08-21 01:05:00,70.2,23.3,29.15,SE,135,0.0,0.0,17,0.00,CLR,,0.00,WeatherDisplay:10.37,2013-08-21 05:05:00,
2013-08-21 01:10:00,70.0,23.1,29.15,SE,135,0.0,0.0,17,0.00,CLR,,0.00,WeatherDisplay:10.37,2013-08-21 05:10:00,
2013-08-21 01:15:00,69.8,23.0,29.15,SE,135,0.0,0.0,17,0.00,CLR,,0.00,WeatherDisplay:10.37,2013-08-21 05:15:00,
2013-08-21 01:20:00,69.8,23.0,29.15,SE,135,0.0,0.0,17,0.00,CLR,,0.00,WeatherDisplay:10.37,2013-08-21 05:20:00,
2013-08-21 01:30:00,69.4,22.7,29.15,SE,135,0.0,0.0,17,0.00,CLR,,0.00,WeatherDisplay:10.37,2013-08-21 05:30:00,
2013-08-21 01:40:00,69.1,22.4,29.15,SE,135,0.0,0.0,17,0.00,CLR,,0.00,WeatherDisplay:10.37,2013-08-21 05:40:00,
2013-08-21 01:45:00,69.1,22.4,29.15,SE,135,0.0,0.0,17,0.00,CLR,,0.00,WeatherDisplay:10.37,2013-08-21 05:45:00,
2013-08-21 01:50:00,69.1,22.4,29.15,SE,135,0.0,0.0,17,0.00,CLR,,0.00,WeatherDisplay:10.37,2013-08-21 05:50:00,
2013-08-21 01:55:00,68.9,22.2,29.15,SE,135,0.0,0.0,17,0.00,CLR,,0.00,WeatherDisplay:10.37,2013-08-21 05:55:00,
2013-08-21 02:05:00,68.7,22.1,29.15,SE,135,0.0,0.0,17,0.00,CLR,,0.00,WeatherDisplay:10.37,2013-08-21 06:05:00,
2013-08-21 02:10:00,68.5,22.0,29.15,SE,135,0.0,0.0,17,0.00,CLR,,0.00,WeatherDisplay:10.37,2013-08-21 06:10:00,
2013-08-21 02:15:00,68.5,22.0,29.15,SE,135,0.0,0.0,17,0.00,CLR,,0.00,WeatherDisplay:10.37,2013-08-21 06:15:00,
2013-08-21 02:25:00,68.5,22.0,29.15,SE,135,0.0,0.0,17,0.00,CLR,,0.00,WeatherDisplay:10.37,2013-08-21 06:25:00,
2013-08-21 02:30:00,68.5,22.0,29.15,SE,135,0.0,0.0,17,0.00,CLR,,0.00,WeatherDisplay:10.37,2013-08-21 06:30:00,
2013-08-21 02:35:00,68.5,22.0,29.15,SE,135,0.0,0.0,17,0.00,CLR,,0.00,WeatherDisplay:10.37,2013-08-21 06:35:00,
2013-08-21 02:40:00,68.5,22.0,29.15,SE,135,0.0,0.0,17,0.00,CLR,,0.00,WeatherDisplay:10.37,2013-08-21 06:40:00,
2013-08-21 02:45:00,68.4,21.8,29.15,SE,135,0.0,0.0,17,0.00,CLR,,0.00,WeatherDisplay:10.37,2013-08-21 06:45:00,
2013-08-21 02:50:00,68.2,21.7,29.15,SE,135,0.0,0.0,17,0.00,CLR,,0.00,WeatherDisplay:10.37,2013-08-21 06:50:00,
2013-08-21 02:55:00,68.2,21.7,29.15,SE,135,0.0,0.0,17,0.00,CLR,,0.00,WeatherDisplay:10.37,2013-08-21 06:55:00,
2013-08-21 03:05:00,68.0,21.5,29.15,SE,135,0.0,0.0,17,0.00,CLR,,0.00,WeatherDisplay:10.37,2013-08-21 07:05:00,
2013-08-21 03:15:00,67.6,21.2,29.15,SE,135,0.0,0.0,17,0.00,CLR,,0.00,WeatherDisplay:10.37,2013-08-21 07:15:00,
2013-08-21 03:20:00,67.5,21.1,29.15,SE,135,0.0,0.0,17,0.00,CLR,,0.00,WeatherDisplay:10.37,2013-08-21 07:20:00,
2013-08-21 03:25:00,67.3,20.9,29.15,SE,135,0.0,0.0,17,0.00,CLR,,0.00,WeatherDisplay:10.37,2013-08-21 07:25:00,
2013-08-21 03:30:00,67.3,20.9,29.15,SE,135,0.0,0.0,17,0.00,CLR,,0.00,WeatherDisplay:10.37,2013-08-21 07:30:00,
2013-08-21 03:35:00,67.2,20.9,29.15,SE,135,0.0,0.0,17,0.00,CLR,,0.00,WeatherDisplay:10.37,2013-08-21 07:35:00,
2013-08-21 03:40:00,67.1,20.8,29.15,SE,135,0.0,0.0,17,0.00,CLR,,0.00,WeatherDisplay:10.37,2013-08-21 07:40:00,
2013-08-21 03:50:00,66.7,20.5,29.15,SE,135,0.0,0.0,17,0.00,CLR,,0.00,WeatherDisplay:10.37,2013-08-21 07:50:00,
2013-08-21 04:00:00,66.4,24.1,29.15,SE,135,0.0,0.0,20,0.00,CLR,,0.00,WeatherDisplay:10.37,2013-08-21 08:00:00,
2013-08-21 04:05:00,66.2,23.9,29.15,SE,135,0.0,0.0,20,0.00,CLR,,0.00,WeatherDisplay:10.37,2013-08-21 08:05:00,
2013-08-21 04:10:00,66.2,23.9,29.15,SE,135,0.0,0.0,20,0.00,CLR,,0.00,WeatherDisplay:10.37,2013-08-21 08:10:00,
2013-08-21 04:15:00,66.0,23.8,29.15,SE,135,0.0,0.0,20,0.00,CLR,,0.00,WeatherDisplay:10.37,2013-08-21 08:15:00,
2013-08-21 04:20:00,66.0,23.8,29.15,SE,135,0.0,0.0,20,0.00,CLR,,0.00,WeatherDisplay:10.37,2013-08-21 08:20:00,
2013-08-21 04:25:00,66.0,23.8,29.15,SE,135,0.0,0.0,20,0.00,CLR,,0.00,WeatherDisplay:10.37,2013-08-21 08:25:00,
2013-08-21 04:30:00,65.8,23.6,29.15,SE,135,0.0,0.0,20,0.00,CLR,,0.00,WeatherDisplay:10.37,2013-08-21 08:30:00,
2013-08-21 04:35:00,65.7,23.5,29.15,SE,135,0.0,0.0,20,0.00,CLR,,0.00,WeatherDisplay:10.37,2013-08-21 08:35:00,
2013-08-21 04:40:00,65.7,23.5,29.15,SE,135,0.0,0.0,20,0.00,CLR,,0.00,WeatherDisplay:10.37,2013-08-21 08:40:00,
2013-08-21 04:50:00,65.5,24.5,29.15,SE,135,0.0,0.0,21,0.00,CLR,,0.00,WeatherDisplay:10.37,2013-08-21 08:50:00,
2013-08-21 04:55:00,65.7,26.8,29.15,SE,135,0.0,0.0,23,0.00,CLR,,0.00,WeatherDisplay:10.37,2013-08-21 08:55:00,
2013-08-21 05:00:00,65.7,26.8,29.15,SE,135,0.0,0.0,23,0.00,CLR,,0.00,WeatherDisplay:10.37,2013-08-21 09:00:00,
2013-08-21 05:05:00,65.7,26.8,29.15,SE,135,0.0,0.0,23,0.00,CLR,,0.00,WeatherDisplay:10.37,2013-08-21 09:05:00,
2013-08-21 05:10:00,65.7,26.8,29.15,SE,135,0.0,0.0,23,0.00,CLR,,0.00,WeatherDisplay:10.37,2013-08-21 09:10:00,
2013-08-21 05:20:00,65.7,26.9,29.15,SE,135,0.0,0.0,23,0.00,CLR,,0.00,WeatherDisplay:10.37,2013-08-21 09:20:00,
2013-08-21 05:25:00,65.8,27.0,29.15,SE,135,0.0,0.0,23,0.00,CLR,,0.00,WeatherDisplay:10.37,2013-08-21 09:25:00,
2013-08-21 05:30:00,65.8,27.0,29.15,SE,135,0.0,0.0,23,0.00,CLR,,0.00,WeatherDisplay:10.37,2013-08-21 09:30:00,
2013-08-21 05:35:00,65.8,27.0,29.15,SE,135,0.0,0.0,23,0.00,CLR,,0.00,WeatherDisplay:10.37,2013-08-21 09:35:00,
2013-08-21 05:40:00,65.8,27.0,29.15,SE,135,0.0,0.0,23,0.00,CLR,,0.00,WeatherDisplay:10.37,2013-08-21 09:40:00,
2013-08-21 05:45:00,65.8,27.0,29.15,SE,135,0.0,0.0,23,0.00,CLR,,0.00,WeatherDisplay:10.37,2013-08-21 09:45:00,
2013-08-21 05:50:00,65.8,27.0,29.15,SE,135,0.0,0.0,23,0.00,CLR,,0.00,WeatherDisplay:10.37,2013-08-21 09:50:00,
2013-08-21 06:00:00,66.2,27.3,29.15,SE,135,0.0,0.0,23,0.00,CLR,,0.00,WeatherDisplay:10.37,2013-08-21 10:00:00,
2013-08-21 06:05:00,66.4,27.4,29.15,SE,135,0.0,0.0,23,0.00,CLR,,0.00,WeatherDisplay:10.37,2013-08-21 10:05:00,
2013-08-21 06:10:00,66.6,27.6,29.15,SE,135,0.0,2.0,23,0.00,CLR,,0.00,WeatherDisplay:10.37,2013-08-21 10:10:00,
2013-08-21 06:15:00,66.7,27.7,29.15,SE,135,0.0,0.0,23,0.00,CLR,,0.00,WeatherDisplay:10.37,2013-08-21 10:15:00,
2013-08-21 06:25:00,66.9,27.9,29.15,SE,140,0.0,0.0,23,0.00,CLR,,0.00,WeatherDisplay:10.37,2013-08-21 10:25:00,
2013-08-21 06:30:00,66.9,27.9,29.15,SE,140,0.0,0.0,23,0.00,CLR,,0.00,WeatherDisplay:10.37,2013-08-21 10:30:00,
2013-08-21 06:35:00,66.7,27.7,29.15,SE,140,0.0,0.0,23,0.00,CLR,,0.00,WeatherDisplay:10.37,2013-08-21 10:35:00,
2013-08-21 06:45:00,66.4,27.4,29.15,SE,140,0.0,0.0,23,0.00,CLR,,0.00,WeatherDisplay:10.37,2013-08-21 10:45:00,
2013-08-21 06:50:00,66.4,27.4,29.15,SE,140,0.0,0.0,23,0.00,CLR,,0.00,WeatherDisplay:10.37,2013-08-21 10:50:00,
2013-08-21 06:55:00,66.4,27.4,29.15,SE,139,0.0,3.0,23,0.00,CLR,,0.00,WeatherDisplay:10.37,2013-08-21 10:55:00,
2013-08-21 07:00:00,66.6,27.6,29.15,SE,132,0.0,3.0,23,0.00,CLR,,0.00,WeatherDisplay:10.37,2013-08-21 11:00:00,
2013-08-21 07:10:00,66.6,27.6,29.15,SE,133,0.0,0.0,23,0.00,CLR,,0.00,WeatherDisplay:10.37,2013-08-21 11:10:00,
2013-08-21 07:20:00,66.6,27.6,29.15,SE,133,0.0,0.0,23,0.00,CLR,,0.00,WeatherDisplay:10.37,2013-08-21 11:20:00,
2013-08-21 07:30:00,66.6,27.6,29.15,SE,133,0.0,0.0,23,0.00,CLR,,0.00,WeatherDisplay:10.37,2013-08-21 11:30:00,
2013-08-21 07:35:00,66.7,27.7,29.15,SE,133,0.0,0.0,23,0.00,CLR,,0.00,WeatherDisplay:10.37,2013-08-21 11:35:00,
2013-08-21 07:40:00,66.7,27.7,29.17,SE,133,0.0,0.0,23,0.00,CLR,,0.00,WeatherDisplay:10.37,2013-08-21 11:40:00,
2013-08-21 07:50:00,66.6,27.6,29.18,SE,133,0.0,0.0,23,0.00,CLR,,0.00,WeatherDisplay:10.37,2013-08-21 11:50:00,
2013-08-21 08:00:00,66.9,27.9,29.18,SE,133,0.0,0.0,23,0.00,CLR,,0.00,WeatherDisplay:10.37,2013-08-21 12:00:00,
2013-08-21 08:05:00,67.2,28.1,29.18,SE,133,0.0,0.0,23,0.00,CLR,,0.00,WeatherDisplay:10.37,2013-08-21 12:05:00,
2013-08-21 08:10:00,67.5,28.3,29.18,SE,140,0.0,3.0,23,0.00,CLR,,0.00,WeatherDisplay:10.37,2013-08-21 12:10:00,
2013-08-21 08:15:00,67.7,28.6,29.18,SE,142,0.0,0.0,23,0.00,CLR,,0.00,WeatherDisplay:10.37,2013-08-21 12:15:00,
2013-08-21 08:20:00,68.0,28.8,29.18,SE,126,0.0,0.0,23,0.00,CLR,,0.00,WeatherDisplay:10.37,2013-08-21 12:20:00,
2013-08-21 08:25:00,68.5,29.2,29.18,SE,128,0.0,4.0,23,0.00,CLR,,0.00,WeatherDisplay:10.37,2013-08-21 12:25:00,
2013-08-21 08:30:00,69.4,30.0,29.18,SSE,150,2.0,5.0,23,0.00,CLR,,0.00,WeatherDisplay:10.37,2013-08-21 12:30:00,
2013-08-21 08:40:00,72.7,31.6,29.18,SE,144,0.0,3.0,22,0.00,CLR,,0.00,WeatherDisplay:10.37,2013-08-21 12:40:00,
2013-08-21 08:45:00,74.0,31.6,29.18,South,187,0.0,4.0,21,0.00,CLR,,0.00,WeatherDisplay:10.37,2013-08-21 12:45:00,
2013-08-21 08:50:00,74.8,32.2,29.18,WSW,238,1.0,4.0,21,0.00,CLR,,0.00,WeatherDisplay:10.37,2013-08-21 12:50:00,
2013-08-21 08:55:00,75.6,29.0,29.18,WSW,253,0.0,6.0,18,0.00,CLR,,0.00,WeatherDisplay:10.37,2013-08-21 12:55:00,
2013-08-21 09:00:00,76.1,29.5,29.18,WSW,255,0.0,4.0,18,0.00,CLR,,0.00,WeatherDisplay:10.37,2013-08-21 13:00:00,
2013-08-21 09:10:00,77.4,26.1,29.18,WSW,246,0.0,4.0,15,0.00,CLR,,0.00,WeatherDisplay:10.37,2013-08-21 13:10:00,
2013-08-21 09:15:00,78.0,26.6,29.18,SW,221,0.0,4.0,15,0.00,CLR,,0.00,WeatherDisplay:10.37,2013-08-21 13:15:00,
2013-08-21 09:20:00,78.4,26.9,29.18,SW,218,1.0,4.0,15,0.00,CLR,,0.00,WeatherDisplay:10.37,2013-08-21 13:20:00,
2013-08-21 09:30:00,77.3,26.0,29.18,SSW,210,0.0,3.0,15,0.00,CLR,,0.00,WeatherDisplay:10.37,2013-08-21 13:30:00,
2013-08-21 09:35:00,77.0,25.8,29.18,SW,236,2.0,4.0,15,0.00,CLR,,0.00,WeatherDisplay:10.37,2013-08-21 13:35:00,
2013-08-21 09:40:00,77.0,25.8,29.18,WSW,257,3.0,6.0,15,0.00,CLR,,0.00,WeatherDisplay:10.37,2013-08-21 13:40:00,
2013-08-21 09:45:00,77.2,25.9,29.18,WSW,255,2.0,5.0,15,0.00,CLR,,0.00,WeatherDisplay:10.37,2013-08-21 13:45:00,
2013-08-21 09:50:00,77.8,26.4,29.18,WSW,254,0.0,4.0,15,0.00,CLR,,0.00,WeatherDisplay:10.37,2013-08-21 13:50:00,
2013-08-21 09:55:00,78.5,27.0,29.18,West,260,2.0,5.0,15,0.00,CLR,,0.00,WeatherDisplay:10.37,2013-08-21 13:55:00,
2013-08-21 10:00:00,79.0,27.4,29.18,WSW,253,0.0,4.0,15,0.00,CLR,,0.00,WeatherDisplay:10.37,2013-08-21 14:00:00,
2013-08-21 10:10:00,79.5,27.8,29.18,West,270,0.0,5.0,15,0.00,CLR,,0.00,WeatherDisplay:10.37,2013-08-21 14:10:00,
2013-08-21 10:15:00,79.7,27.9,29.18,West,268,0.0,4.0,15,0.00,CLR,,0.00,WeatherDisplay:10.37,2013-08-21 14:15:00,
2013-08-21 10:20:00,80.8,27.1,29.18,WSW,246,0.0,4.0,14,0.00,CLR,,0.00,WeatherDisplay:10.37,2013-08-21 14:20:00,
2013-08-21 10:25:00,82.1,28.2,29.18,WSW,255,0.0,5.0,14,0.00,CLR,,0.00,WeatherDisplay:10.37,2013-08-21 14:25:00,
2013-08-21 10:30:00,82.8,28.7,29.18,WSW,237,0.0,6.0,14,0.00,CLR,,0.00,WeatherDisplay:10.37,2013-08-21 14:30:00,
2013-08-21 10:35:00,83.6,29.3,29.18,WSW,247,0.0,4.0,14,0.00,CLR,,0.00,WeatherDisplay:10.37,2013-08-21 14:35:00,
2013-08-21 10:40:00,84.3,28.1,29.18,West,259,1.0,5.0,13,0.00,CLR,,0.00,WeatherDisplay:10.37,2013-08-21 14:40:00,
2013-08-21 10:45:00,84.6,28.3,29.18,WSW,254,0.0,6.0,13,0.00,CLR,,0.00,WeatherDisplay:10.37,2013-08-21 14:45:00,
2013-08-21 10:50:00,85.6,29.1,29.18,WSW,250,0.0,4.0,13,0.00,CLR,,0.00,WeatherDisplay:10.37,2013-08-21 14:50:00,
2013-08-21 11:00:00,84.9,28.6,29.18,West,268,2.0,6.0,13,0.00,CLR,,0.00,WeatherDisplay:10.37,2013-08-21 15:00:00,
2013-08-21 11:10:00,86.5,29.8,29.18,South,180,0.0,4.0,13,0.00,CLR,,0.00,WeatherDisplay:10.37,2013-08-21 15:10:00,
2013-08-21 11:15:00,86.9,30.1,29.18,WSW,240,2.0,6.0,13,0.00,CLR,,0.00,WeatherDisplay:10.37,2013-08-21 15:15:00,
2013-08-21 11:20:00,87.3,30.4,29.18,West,267,1.0,5.0,13,0.00,CLR,,0.00,WeatherDisplay:10.37,2013-08-21 15:20:00,
2013-08-21 11:25:00,87.6,30.7,29.18,SSW,203,0.0,4.0,13,0.00,CLR,,0.00,WeatherDisplay:10.37,2013-08-21 15:25:00,
2013-08-21 11:30:00,87.8,30.8,29.18,SSE,150,1.0,4.0,13,0.00,CLR,,0.00,WeatherDisplay:10.37,2013-08-21 15:30:00,
2013-08-21 11:40:00,85.5,29.0,29.18,WNW,298,3.0,6.0,13,0.00,CLR,,0.00,WeatherDisplay:10.37,2013-08-21 15:40:00,
2013-08-21 11:50:00,84.4,28.1,29.18,WNW,286,0.0,4.0,13,0.00,CLR,,0.00,WeatherDisplay:10.37,2013-08-21 15:50:00,
2013-08-21 12:00:00,85.3,28.8,29.18,West,259,0.0,4.0,13,0.00,CLR,,0.00,WeatherDisplay:10.37,2013-08-21 16:00:00,
2013-08-21 12:05:00,86.0,29.4,29.18,WSW,238,0.0,0.0,13,0.00,CLR,,0.00,WeatherDisplay:10.37,2013-08-21 16:05:00,
2013-08-21 12:10:00,86.4,29.8,29.18,WSW,257,0.0,4.0,13,0.00,CLR,,0.00,WeatherDisplay:10.37,2013-08-21 16:10:00,
2013-08-21 12:20:00,86.7,30.0,29.18,WNW,288,0.0,0.0,13,0.00,CLR,,0.00,WeatherDisplay:10.37,2013-08-21 16:20:00,
2013-08-21 12:25:00,86.8,30.1,29.18,West,280,0.0,3.0,13,0.00,CLR,,0.00,WeatherDisplay:10.37,2013-08-21 16:25:00,
2013-08-21 12:30:00,87.1,30.3,29.18,WNW,301,0.0,0.0,13,0.00,CLR,,0.00,WeatherDisplay:10.37,2013-08-21 16:30:00,
2013-08-21 12:40:00,87.2,30.4,29.18,West,260,0.0,0.0,13,0.00,CLR,,0.00,WeatherDisplay:10.37,2013-08-21 16:40:00,
2013-08-21 12:45:00,87.5,30.6,29.18,South,187,0.0,4.0,13,0.00,CLR,,0.00,WeatherDisplay:10.37,2013-08-21 16:45:00,
2013-08-21 12:50:00,87.7,30.7,29.18,SSE,162,0.0,4.0,13,0.00,CLR,,0.00,WeatherDisplay:10.37,2013-08-21 16:50:00,
2013-08-21 12:55:00,87.8,30.8,29.18,SW,224,0.0,4.0,13,0.00,CLR,,0.00,WeatherDisplay:10.37,2013-08-21 16:55:00,
2013-08-21 13:00:00,88.4,31.3,29.18,SW,227,0.0,4.0,13,0.00,CLR,,0.00,WeatherDisplay:10.37,2013-08-21 17:00:00,
2013-08-21 13:05:00,89.0,31.7,29.18,South,186,0.0,4.0,13,0.00,CLR,,0.00,WeatherDisplay:10.37,2013-08-21 17:05:00,
2013-08-21 13:10:00,89.6,30.2,29.16,South,174,0.0,3.0,12,0.00,CLR,,0.00,WeatherDisplay:10.37,2013-08-21 17:10:00,
2013-08-21 13:15:00,89.8,30.4,29.15,South,185,0.0,6.0,12,0.00,CLR,,0.00,WeatherDisplay:10.37,2013-08-21 17:15:00,
2013-08-21 13:20:00,89.4,32.1,29.15,SSW,210,0.0,6.0,13,0.00,CLR,,0.00,WeatherDisplay:10.37,2013-08-21 17:20:00,
2013-08-21 13:25:00,89.2,31.9,29.15,West,266,0.0,6.0,13,0.00,CLR,,0.00,WeatherDisplay:10.37,2013-08-21 17:25:00,
2013-08-21 13:30:00,89.6,30.2,29.15,West,280,0.0,3.0,12,0.00,CLR,,0.00,WeatherDisplay:10.37,2013-08-21 17:30:00,
2013-08-21 13:35:00,89.8,30.4,29.15,WSW,257,3.0,6.0,12,0.00,CLR,,0.00,WeatherDisplay:10.37,2013-08-21 17:35:00,
2013-08-21 13:40:00,90.5,31.0,29.15,WSW,241,3.0,6.0,12,0.00,CLR,,0.00,WeatherDisplay:10.37,2013-08-21 17:40:00,
2013-08-21 13:45:00,91.2,31.5,29.15,South,186,2.0,6.0,12,0.00,CLR,,0.00,WeatherDisplay:10.37,2013-08-21 17:45:00,
2013-08-21 13:50:00,91.8,31.9,29.15,WSW,238,0.0,3.0,12,0.00,CLR,,0.00,WeatherDisplay:10.37,2013-08-21 17:50:00,
2013-08-21 14:00:00,92.3,32.3,29.15,West,276,2.0,6.0,12,0.00,CLR,,0.00,WeatherDisplay:10.37,2013-08-21 18:00:00,
2013-08-21 14:05:00,93.1,30.8,29.15,SW,227,2.0,4.0,11,0.00,CLR,,0.00,WeatherDisplay:10.37,2013-08-21 18:05:00,
2013-08-21 14:10:00,93.6,31.2,29.15,South,181,2.0,6.0,11,0.00,CLR,,0.00,WeatherDisplay:10.37,2013-08-21 18:10:00,
2013-08-21 14:15:00,93.4,31.0,29.15,SSE,168,0.0,4.0,11,0.00,CLR,,0.00,WeatherDisplay:10.37,2013-08-21 18:15:00,
2013-08-21 14:20:00,92.9,32.8,29.15,SSW,210,2.0,4.0,12,0.00,CLR,,0.00,WeatherDisplay:10.37,2013-08-21 18:20:00,
2013-08-21 14:25:00,91.2,31.5,29.15,NW,320,5.0,6.0,12,0.00,CLR,,0.00,WeatherDisplay:10.37,2013-08-21 18:25:00,
2013-08-21 14:35:00,89.5,30.2,29.15,WNW,284,5.0,6.0,12,0.00,CLR,,0.00,WeatherDisplay:10.37,2013-08-21 18:35:00,
2013-08-21 14:40:00,88.1,31.0,29.15,NW,310,5.0,6.0,13,0.00,CLR,,0.00,WeatherDisplay:10.37,2013-08-21 18:40:00,
2013-08-21 14:45:00,87.6,30.7,29.15,WNW,292,0.0,6.0,13,0.00,CLR,,0.00,WeatherDisplay:10.37,2013-08-21 18:45:00,
2013-08-21 14:50:00,87.4,30.5,29.15,WNW,290,0.0,6.0,13,0.00,CLR,,0.00,WeatherDisplay:10.37,2013-08-21 18:50:00,
2013-08-21 14:55:00,87.4,30.5,29.15,WNW,286,2.0,5.0,13,0.00,CLR,,0.00,WeatherDisplay:10.37,2013-08-21 18:55:00,
2013-08-21 15:00:00,87.4,30.5,29.15,West,279,3.0,4.0,13,0.00,CLR,,0.00,WeatherDisplay:10.37,2013-08-21 19:00:00,
2013-08-21 15:10:00,88.2,31.1,29.15,WNW,289,0.0,0.0,13,0.00,CLR,,0.00,WeatherDisplay:10.37,2013-08-21 19:10:00,
2013-08-21 15:15:00,88.5,31.4,29.15,West,267,2.0,4.0,13,0.00,CLR,,0.00,WeatherDisplay:10.37,2013-08-21 19:15:00,
2013-08-21 15:20:00,89.2,31.9,29.15,WSW,256,0.0,4.0,13,0.00,CLR,,0.00,WeatherDisplay:10.37,2013-08-21 19:20:00,
2013-08-21 15:25:00,90.1,30.6,29.12,WNW,286,3.0,6.0,12,0.00,CLR,,0.00,WeatherDisplay:10.37,2013-08-21 19:25:00,
2013-08-21 15:30:00,89.7,30.3,29.12,NW,312,5.0,7.0,12,0.00,CLR,,0.00,WeatherDisplay:10.37,2013-08-21 19:30:00,
2013-08-21 15:35:00,89.7,30.3,29.12,WNW,303,3.0,6.0,12,0.00,CLR,,0.00,WeatherDisplay:10.37,2013-08-21 19:35:00,
2013-08-21 15:40:00,90.2,30.7,29.12,WNW,286,2.0,6.0,12,0.00,CLR,,0.00,WeatherDisplay:10.37,2013-08-21 19:40:00,
2013-08-21 15:45:00,90.2,30.7,29.12,West,275,0.0,6.0,12,0.00,CLR,,0.00,WeatherDisplay:10.37,2013-08-21 19:45:00,
2013-08-21 15:50:00,89.6,30.2,29.12,WNW,288,2.0,4.0,12,0.00,CLR,,0.00,WeatherDisplay:10.37,2013-08-21 19:50:00,
2013-08-21 16:00:00,88.9,31.7,29.12,NW,310,3.0,6.0,13,0.00,CLR,,0.00,WeatherDisplay:10.37,2013-08-21 20:00:00,
2013-08-21 16:05:00,89.2,31.9,29.12,NW,317,3.0,6.0,13,0.00,CLR,,0.00,WeatherDisplay:10.37,2013-08-21 20:05:00,
2013-08-21 16:10:00,90.2,30.7,29.12,NW,306,0.0,6.0,12,0.00,CLR,,0.00,WeatherDisplay:10.37,2013-08-21 20:10:00,
2013-08-21 16:15:00,91.0,31.3,29.12,West,281,0.0,3.0,12,0.00,CLR,,0.00,WeatherDisplay:10.37,2013-08-21 20:15:00,
2013-08-21 16:20:00,91.2,31.5,29.12,West,266,3.0,7.0,12,0.00,CLR,,0.00,WeatherDisplay:10.37,2013-08-21 20:20:00,
2013-08-21 16:25:00,91.0,31.3,29.12,West,264,3.0,8.0,12,0.00,CLR,,0.00,WeatherDisplay:10.37,2013-08-21 20:25:00,
2013-08-21 16:30:00,89.8,30.4,29.12,WNW,284,5.0,8.0,12,0.00,CLR,,0.00,WeatherDisplay:10.37,2013-08-21 20:30:00,
2013-08-21 16:35:00,88.6,31.4,29.12,NW,305,5.0,8.0,13,0.00,CLR,,0.00,WeatherDisplay:10.37,2013-08-21 20:35:00,
2013-08-21 16:40:00,88.1,31.1,29.12,NW,314,5.0,8.0,13,0.00,CLR,,0.00,WeatherDisplay:10.37,2013-08-21 20:40:00,
2013-08-21 16:45:00,88.3,31.2,29.12,NW,319,5.0,8.0,13,0.00,CLR,,0.00,WeatherDisplay:10.37,2013-08-21 20:45:00,
2013-08-21 16:50:00,88.4,31.3,29.12,NW,310,2.0,8.0,13,0.00,CLR,,0.00,WeatherDisplay:10.37,2013-08-21 20:50:00,
2013-08-21 16:55:00,88.5,31.4,29.12,WNW,303,3.0,6.0,13,0.00,CLR,,0.00,WeatherDisplay:10.37,2013-08-21 20:55:00,
2013-08-21 17:00:00,89.1,31.8,29.12,WNW,294,2.0,6.0,13,0.00,CLR,,0.00,WeatherDisplay:10.37,2013-08-21 21:00:00,
2013-08-21 17:05:00,89.4,32.1,29.12,West,281,3.0,6.0,13,0.00,CLR,,0.00,WeatherDisplay:10.37,2013-08-21 21:05:00,
2013-08-21 17:10:00,89.3,32.0,29.12,WNW,282,3.0,6.0,13,0.00,CLR,,0.00,WeatherDisplay:10.37,2013-08-21 21:10:00,
2013-08-21 17:15:00,89.2,31.9,29.12,NW,310,5.0,8.0,13,0.00,CLR,,0.00,WeatherDisplay:10.37,2013-08-21 21:15:00,
2013-08-21 17:20:00,89.1,31.8,29.12,NW,309,5.0,6.0,13,0.00,CLR,,0.00,WeatherDisplay:10.37,2013-08-21 21:20:00,
2013-08-21 17:25:00,89.4,32.1,29.12,West,280,2.0,5.0,13,0.00,CLR,,0.00,WeatherDisplay:10.37,2013-08-21 21:25:00,
2013-08-21 17:30:00,89.4,32.1,29.12,West,266,3.0,8.0,13,0.00,CLR,,0.00,WeatherDisplay:10.37,2013-08-21 21:30:00,
2013-08-21 17:35:00,89.1,31.8,29.12,West,270,3.0,9.0,13,0.00,CLR,,0.00,WeatherDisplay:10.37,2013-08-21 21:35:00,
2013-08-21 17:40:00,88.8,31.6,29.12,WNW,300,5.0,8.0,13,0.00,CLR,,0.00,WeatherDisplay:10.37,2013-08-21 21:40:00,
2013-08-21 17:45:00,89.1,31.9,29.12,WNW,293,3.0,6.0,13,0.00,CLR,,0.00,WeatherDisplay:10.37,2013-08-21 21:45:00,
2013-08-21 17:50:00,88.8,31.6,29.12,WNW,288,5.0,6.0,13,0.00,CLR,,0.00,WeatherDisplay:10.37,2013-08-21 21:50:00,
2013-08-21 17:55:00,87.9,30.9,29.12,NW,306,3.0,6.0,13,0.00,CLR,,0.00,WeatherDisplay:10.37,2013-08-21 21:55:00,
2013-08-21 18:05:00,88.2,31.1,29.12,West,278,2.0,4.0,13,0.00,CLR,,0.00,WeatherDisplay:10.37,2013-08-21 22:05:00,
2013-08-21 18:10:00,88.2,31.1,29.10,WNW,302,0.0,4.0,13,0.00,CLR,,0.00,WeatherDisplay:10.37,2013-08-21 22:10:00,
2013-08-21 18:15:00,87.9,30.9,29.09,NW,309,0.0,6.0,13,0.00,CLR,,0.00,WeatherDisplay:10.37,2013-08-21 22:15:00,
2013-08-21 18:20:00,87.6,30.7,29.09,WNW,303,0.0,3.0,13,0.00,CLR,,0.00,WeatherDisplay:10.37,2013-08-21 22:20:00,
2013-08-21 18:25:00,87.4,30.5,29.09,NW,308,0.0,0.0,13,0.00,CLR,,0.00,WeatherDisplay:10.37,2013-08-21 22:25:00,
2013-08-21 18:30:00,87.2,30.3,29.12,NW,310,0.0,0.0,13,0.00,CLR,,0.00,WeatherDisplay:10.37,2013-08-21 22:30:00,
2013-08-21 18:35:00,87.3,30.4,29.12,WNW,289,0.0,0.0,13,0.00,CLR,,0.00,WeatherDisplay:10.37,2013-08-21 22:35:00,
2013-08-21 18:40:00,87.3,30.4,29.10,West,272,0.0,0.0,13,0.00,CLR,,0.00,WeatherDisplay:10.37,2013-08-21 22:40:00,
2013-08-21 18:45:00,87.3,30.4,29.09,WNW,283,0.0,0.0,13,0.00,CLR,,0.00,WeatherDisplay:10.37,2013-08-21 22:45:00,
2013-08-21 18:50:00,87.3,30.4,29.09,WNW,282,0.0,0.0,13,0.00,CLR,,0.00,WeatherDisplay:10.37,2013-08-21 22:50:00,
2013-08-21 19:00:00,87.3,30.4,29.09,WNW,296,0.0,0.0,13,0.00,CLR,,0.00,WeatherDisplay:10.37,2013-08-21 23:00:00,
2013-08-21 19:05:00,87.4,30.5,29.09,WNW,293,0.0,0.0,13,0.00,CLR,,0.00,WeatherDisplay:10.37,2013-08-21 23:05:00,
2013-08-21 19:10:00,87.3,30.4,29.09,WNW,288,0.0,0.0,13,0.00,CLR,,0.00,WeatherDisplay:10.37,2013-08-21 23:10:00,
2013-08-21 19:20:00,86.7,30.0,29.09,West,263,0.0,0.0,13,0.00,CLR,,0.00,WeatherDisplay:10.37,2013-08-21 23:20:00,
2013-08-21 19:25:00,86.4,29.7,29.09,West,261,0.0,0.0,13,0.00,CLR,,0.00,WeatherDisplay:10.37,2013-08-21 23:25:00,
2013-08-21 19:30:00,86.2,29.6,29.09,WSW,252,0.0,0.0,13,0.00,CLR,,0.00,WeatherDisplay:10.37,2013-08-21 23:30:00,
2013-08-21 19:35:00,85.7,29.2,29.09,WSW,258,0.0,0.0,13,0.00,CLR,,0.00,WeatherDisplay:10.37,2013-08-21 23:35:00,
2013-08-21 19:40:00,85.3,28.8,29.09,West,280,0.0,0.0,13,0.00,CLR,,0.00,WeatherDisplay:10.37,2013-08-21 23:40:00,
2013-08-21 19:45:00,84.9,28.5,29.09,WNW,282,0.0,0.0,13,0.00,CLR,,0.00,WeatherDisplay:10.37,2013-08-21 23:45:00,
2013-08-21 19:50:00,84.4,28.1,29.09,West,267,0.0,0.0,13,0.00,CLR,,0.00,WeatherDisplay:10.37,2013-08-21 23:50:00,
2013-08-21 20:00:00,83.3,29.1,29.09,WSW,257,0.0,0.0,14,0.00,CLR,,0.00,WeatherDisplay:10.37,2013-08-22 00:00:00,
2013-08-21 20:05:00,82.7,28.6,29.09,West,269,0.0,0.0,14,0.00,CLR,,0.00,WeatherDisplay:10.37,2013-08-22 00:05:00,
2013-08-21 20:10:00,82.2,28.3,29.09,West,277,0.0,0.0,14,0.00,CLR,,0.00,WeatherDisplay:10.37,2013-08-22 00:10:00,
2013-08-21 20:15:00,81.7,27.8,29.09,West,278,0.0,0.0,14,0.00,CLR,,0.00,WeatherDisplay:10.37,2013-08-22 00:15:00,
2013-08-21 20:20:00,80.8,27.1,29.09,West,278,0.0,0.0,14,0.00,CLR,,0.00,WeatherDisplay:10.37,2013-08-22 00:20:00,
2013-08-21 20:25:00,80.4,28.5,29.09,West,278,0.0,0.0,15,0.00,CLR,,0.00,WeatherDisplay:10.37,2013-08-22 00:25:00,
2013-08-21 20:30:00,79.9,28.1,29.09,West,278,0.0,0.0,15,0.00,CLR,,0.00,WeatherDisplay:10.37,2013-08-22 00:30:00,
2013-08-21 20:35:00,79.5,27.7,29.09,West,278,0.0,0.0,15,0.00,CLR,,0.00,WeatherDisplay:10.37,2013-08-22 00:35:00,
2013-08-21 20:40:00,79.0,27.4,29.09,West,278,0.0,0.0,15,0.00,CLR,,0.00,WeatherDisplay:10.37,2013-08-22 00:40:00,
2013-08-21 20:45:00,78.4,26.9,29.09,West,278,0.0,0.0,15,0.00,CLR,,0.00,WeatherDisplay:10.37,2013-08-22 00:45:00,
2013-08-21 20:50:00,77.8,26.4,29.09,West,278,0.0,0.0,15,0.00,CLR,,0.00,WeatherDisplay:10.37,2013-08-22 00:50:00,
2013-08-21 20:55:00,77.2,25.9,29.09,West,278,0.0,0.0,15,0.00,CLR,,0.00,WeatherDisplay:10.37,2013-08-22 00:55:00,
2013-08-21 21:00:00,76.8,25.6,29.09,West,278,0.0,0.0,15,0.00,CLR,,0.00,WeatherDisplay:10.37,2013-08-22 01:00:00,
2013-08-21 21:05:00,76.3,25.2,29.09,West,278,0.0,0.0,15,0.00,CLR,,0.00,WeatherDisplay:10.37,2013-08-22 01:05:00,
2013-08-21 21:10:00,76.1,25.1,29.09,West,278,0.0,0.0,15,0.00,CLR,,0.00,WeatherDisplay:10.37,2013-08-22 01:10:00,
2013-08-21 21:15:00,75.7,24.8,29.09,West,278,0.0,0.0,15,0.00,CLR,,0.00,WeatherDisplay:10.37,2013-08-22 01:15:00,
2013-08-21 21:20:00,75.4,24.5,29.09,West,278,0.0,0.0,15,0.00,CLR,,0.00,WeatherDisplay:10.37,2013-08-22 01:20:00,
2013-08-21 21:30:00,74.8,25.6,29.09,West,278,0.0,0.0,16,0.00,CLR,,0.00,WeatherDisplay:10.37,2013-08-22 01:30:00,
2013-08-21 21:40:00,74.3,25.2,29.09,West,278,0.0,0.0,16,0.00,CLR,,0.00,WeatherDisplay:10.37,2013-08-22 01:40:00,
2013-08-21 21:45:00,73.9,24.9,29.12,West,278,0.0,0.0,16,0.00,CLR,,0.00,WeatherDisplay:10.37,2013-08-22 01:45:00,
2013-08-21 21:50:00,73.8,24.7,29.12,West,278,0.0,0.0,16,0.00,CLR,,0.00,WeatherDisplay:10.37,2013-08-22 01:50:00,
2013-08-21 21:55:00,73.4,24.5,29.12,West,278,0.0,0.0,16,0.00,CLR,,0.00,WeatherDisplay:10.37,2013-08-22 01:55:00,
2013-08-21 22:00:00,73.2,24.3,29.12,West,278,0.0,0.0,16,0.00,CLR,,0.00,WeatherDisplay:10.37,2013-08-22 02:00:00,
2013-08-21 22:10:00,72.9,24.0,29.12,West,278,0.0,0.0,16,0.00,CLR,,0.00,WeatherDisplay:10.37,2013-08-22 02:10:00,
2013-08-21 22:20:00,72.0,23.3,29.12,West,278,0.0,0.0,16,0.00,CLR,,0.00,WeatherDisplay:10.37,2013-08-22 02:20:00,
2013-08-21 22:25:00,71.4,24.3,29.12,West,278,0.0,0.0,17,0.00,CLR,,0.00,WeatherDisplay:10.37,2013-08-22 02:25:00,
2013-08-21 22:30:00,71.2,24.1,29.12,West,278,0.0,0.0,17,0.00,CLR,,0.00,WeatherDisplay:10.37,2013-08-22 02:30:00,
2013-08-21 22:35:00,71.4,24.3,29.12,West,278,0.0,0.0,17,0.00,CLR,,0.00,WeatherDisplay:10.37,2013-08-22 02:35:00,
2013-08-21 22:40:00,71.4,24.3,29.12,West,278,0.0,0.0,17,0.00,CLR,,0.00,WeatherDisplay:10.37,2013-08-22 02:40:00,
2013-08-21 22:45:00,71.3,24.2,29.12,West,278,0.0,0.0,17,0.00,CLR,,0.00,WeatherDisplay:10.37,2013-08-22 02:45:00,
2013-08-21 22:50:00,71.2,24.1,29.12,West,278,0.0,0.0,17,0.00,CLR,,0.00,WeatherDisplay:10.37,2013-08-22 02:50:00,
2013-08-21 22:55:00,71.0,23.9,29.12,West,278,0.0,0.0,17,0.00,CLR,,0.00,WeatherDisplay:10.37,2013-08-22 02:55:00,
2013-08-21 23:00:00,70.7,23.7,29.12,West,278,0.0,0.0,17,0.00,CLR,,0.00,WeatherDisplay:10.37,2013-08-22 03:00:00,
2013-08-21 23:05:00,70.5,23.6,29.12,West,278,0.0,0.0,17,0.00,CLR,,0.00,WeatherDisplay:10.37,2013-08-22 03:05:00,
2013-08-21 23:10:00,70.5,23.6,29.12,West,278,0.0,0.0,17,0.00,CLR,,0.00,WeatherDisplay:10.37,2013-08-22 03:10:00,
2013-08-21 23:20:00,70.0,23.1,29.12,West,278,0.0,0.0,17,0.00,CLR,,0.00,WeatherDisplay:10.37,2013-08-22 03:20:00,
2013-08-21 23:25:00,70.0,23.1,29.12,West,278,0.0,0.0,17,0.00,CLR,,0.00,WeatherDisplay:10.37,2013-08-22 03:25:00,
2013-08-21 23:30:00,69.6,22.8,29.12,West,278,0.0,0.0,17,0.00,CLR,,0.00,WeatherDisplay:10.37,2013-08-22 03:30:00,
2013-08-21 23:35:00,69.4,22.7,29.12,West,278,0.0,0.0,17,0.00,CLR,,0.00,WeatherDisplay:10.37,2013-08-22 03:35:00,
2013-08-21 23:40:00,69.3,22.5,29.12,West,278,0.0,0.0,17,0.00,CLR,,0.00,WeatherDisplay:10.37,2013-08-22 03:40:00,
2013-08-21 23:45:00,69.3,22.5,29.12,West,278,0.0,0.0,17,0.00,CLR,,0.00,WeatherDisplay:10.37,2013-08-22 03:45:00,
2013-08-21 23:50:00,69.4,26.6,29.12,West,278,0.0,0.0,20,0.00,CLR,,0.00,WeatherDisplay:10.37,2013-08-22 03:50:00,
2013-08-21 23:55:00,69.6,26.7,29.12,West,278,0.0,0.0,20,0.00,CLR,,0.00,WeatherDisplay:10.37,2013-08-22 03:55:00,